Weather History for KLWT - July, 2013

Change the Weather History Date:

Thursday, July 25, 2013

  Actual Average Record
Temperature  
Mean Temperature 64 °F 67 °F  
Max Temperature 77 °F 83 °F 101 °F (1933)
Min Temperature 51 °F 52 °F 38 °F (1948)
Degree Days  
Heating Degree Days 1 1  
Month to date heating degree days 11 65  
Since 1 June heating degree days 231 292  
Since 1 July heating degree days 11 65  
Cooling Degree Days 0 4  
Month to date cooling degree days 99 68  
Year to date cooling degree days 118 90  
Since 1 June cooling degree days 115 88  
Growing Degree Days 14 (Base 50)    
Moisture  
Dew Point 52 °F    
Average Humidity 67    
Maximum Humidity 96    
Minimum Humidity 38    
Precipitation  
Precipitation 0.00 in 0.06 in 0.44 in (1955)
Month to date precipitation 1.37 1.62  
Year to date precipitation 15.56 10.96  
Snow  
Snow 0.00 in - - ()
Snow Depth 0.00 in    
Sea Level Pressure  
Sea Level Pressure 30.12 in    
Wind  
Wind Speed 10 mph (ESE)    
Max Wind Speed 22 mph    
Max Gust Speed 26 mph    
Visibility 10 miles    
Events      
T = Trace of Precipitation, MM = Missing Value Source: NWS Daily Summary

Daily Weather History Graph

Daily Weather History Graph

Search for Another Location

Airport or City:

Trip Planner

Search our weather history database for the weather conditions in past years. The results will help you decide how hot, cold, wet, or windy it might be!

Date:

Astronomy

Jul. 25, 2013 Rise Set
Actual Time 5:49 AM MDT 8:59 PM MDT
Civil Twilight 5:12 AM MDT 9:35 PM MDT
Nautical Twilight 4:24 AM MDT 10:22 PM MDT
Astronomical Twilight 3:25 AM MDT 11:21 PM MDT
Moon 10:21 PM MDT (7/25) 9:40 AM MDT (7/25)
Length of Visible Light 16h 22m
Length of Day
15h 09m
Waning Gibbous, 88% of the Moon is Illuminated
Jul 25
Waning Gibbous
Jul 29
Last Quarter
Aug 6
New
Aug 14
First Quarter
Aug 20
Full

Hourly Weather History & Observations

Time (MDT) Temp. Dew Point Humidity Pressure Visibility Wind Dir Wind Speed Gust Speed Precip Events Conditions
12:49 AM 60.8 °F 53.6 °F 77% 30.16 in 10.0 mi ENE 11.5 mph - 0.00 in   Clear
12:54 AM 61.0 °F 54.0 °F 78% 30.04 in 10.0 mi ENE 11.5 mph - 0.00 in   Clear
1:54 AM 57.9 °F 54.0 °F 87% 30.04 in 10.0 mi SE 4.6 mph - N/A   Clear
2:54 AM 57.0 °F 54.0 °F 89% 30.07 in 10.0 mi SSE 5.8 mph - N/A   Clear
3:54 AM 55.9 °F 53.1 °F 90% 30.08 in 10.0 mi Calm Calm - N/A   Clear
4:54 AM 54.0 °F 52.0 °F 93% 30.12 in 10.0 mi Calm Calm - N/A   Clear
5:54 AM 52.0 °F 50.0 °F 93% 30.12 in 10.0 mi South 6.9 mph - N/A   Clear
6:54 AM 53.1 °F 51.1 °F 93% 30.14 in 10.0 mi SE 4.6 mph - N/A   Clear
7:54 AM 57.9 °F 54.0 °F 87% 30.14 in 10.0 mi East 3.5 mph - N/A   Clear
8:54 AM 62.1 °F 54.0 °F 75% 30.15 in 10.0 mi Calm Calm - N/A   Clear
9:54 AM 66.0 °F 55.9 °F 70% 30.16 in 10.0 mi Variable 6.9 mph - N/A   Clear
10:54 AM 70.0 °F 54.0 °F 57% 30.15 in 10.0 mi East 8.1 mph - N/A   Clear
11:54 AM 73.0 °F 48.9 °F 42% 30.15 in 10.0 mi ESE 6.9 mph - N/A   Clear
12:54 PM 75.0 °F 48.9 °F 40% 30.13 in 10.0 mi Variable 3.5 mph - N/A   Clear
1:54 PM 75.0 °F 53.1 °F 46% 30.12 in 10.0 mi SE 11.5 mph - N/A   Partly Cloudy
2:54 PM 75.9 °F 54.0 °F 46% 30.11 in 10.0 mi East 13.8 mph 24.2 mph N/A   Clear
3:54 PM 75.9 °F 54.0 °F 46% 30.11 in 10.0 mi East 13.8 mph - N/A   Clear
4:54 PM 75.0 °F 54.0 °F 48% 30.11 in 10.0 mi East 15.0 mph 24.2 mph N/A   Clear
5:54 PM 73.9 °F 53.1 °F 48% 30.12 in 10.0 mi East 17.3 mph - N/A   Clear
6:54 PM 72.0 °F 52.0 °F 49% 30.12 in 10.0 mi East 21.9 mph 26.5 mph N/A   Clear
7:54 PM 69.1 °F 52.0 °F 54% 30.13 in 10.0 mi East 19.6 mph 25.3 mph N/A   Clear
8:54 PM 64.9 °F 51.1 °F 61% 30.13 in 10.0 mi East 16.1 mph 21.9 mph N/A   Clear
9:54 PM 63.0 °F 50.0 °F 63% 30.16 in 10.0 mi East 12.7 mph - N/A   Partly Cloudy
10:54 PM 62.1 °F 48.9 °F 62% 30.17 in 10.0 mi East 15.0 mph - N/A   Mostly Cloudy
11:54 PM 60.1 °F 50.0 °F 69% 30.17 in 10.0 mi ESE 15.0 mph 21.9 mph N/A   Clear